THOR ABLESTAR DEB, 334

Orbit data source: Space-Track

THOR ABLESTAR DEB, 334 is space debris in LEO originally from a launch on Thu, 29 Jun 1961 UTC launched from the Air Force Eastern Test Range (AFETR). Debris objects in space refer to the collection of defunct objects orbiting the Earth. Examples of debris include non-operational satellites, rocket bodies, and fragments generated from explosions, collisions, or faulty payload assembly.

Loading next visibility...
Identifier
334, 1961-015DL
Orbit
LEO
Country
Flag of USUS
Related business
Manufacturer
Unknown
Mission
Spacecraft
Bus & Motor
Unknown
Mass
Unknown
Launch date (UTC)
1961-06-29 (64 years ago)
Launch vehicle
Unknown
Launch site
Air Force Eastern Test Range (AFETR)
Object type
Payload
Rocket body
Debris
Shape & HBR
Unknown shape, 0.1 m
Radar Cross Section
Small (<0.1 m²)

Expand to show TLE details & history
Last TLE update: 11 hours ago

TLE from 11 hours ago
0 THOR ABLESTAR DEB
1 00334U 61015DL  25342.92009771  .00000077  00000-0  11674-3 0  9990
2 00334  66.9244 286.9317 0085031 241.9966 117.2492 13.91709144269588
Epoch: 2025-12-08T22:04Z
TLE epoch observation values (Epoch: 2025-12-08T22:04:56.442Z)
Latitude
-0.00006°
Longitude
-122.21571°
Altitude
953.575 km
Speed
7.361 km/s
True Right ascension
19h 07m 43s
True Declination
0° 00' 00"
Sunlit
Object was in daylight at epoch
Visualization orbit readout
Latitude
Unknown
Longitude
Unknown
Altitude
Unknown
Speed
Unknown
Apparent Right ascension
Unknown
Apparent Declination
Unknown
Sunlit
N/A
Visualization observer readout
Local Sidereal Time
07:03:43
Azimuth
Unknown
Elevation
Unknown
Doppler factor
Unknown
Orbital elements
Apogee altitude
983.091 km
Perigee altitude
858.96 km
Semi-major axis
7,299.163 km
Eccentricity
0.0085
Inclination
66.9244°
RAAN
286.9317°
Arg. of periapsis
241.9966°
True anomaly
118.11122°
Mean anomaly
117.2492°
Eccentric anomaly
117.68063°
Mean motion
3.48044 °/min
Orbital period
103.44 mins
BSTAR
0.00011674
Loading maneuver chart data...
Computing Atmospheric mass density...

Documentation

Showing up to 5 results
|